Jackpot

Texas Poker Multi Jackpot System

Kini Telah hadir Jackpot SUPER ROYAL FLUSH

Kini Telah hadir Jackpot 2000 (khusus table VIP keatas).

Ikutilah global jackpot yang tersedia di system kami, dengan system jackpot terbaru dan pertama di indonesia, anda dapat membeli jackpot dengan harga 100 rupiah saja dan menangkan hadiahnya hingga puluhan juta rupiah.

Jackpot bukanlah suatu keharusan untuk dibeli, namun kami memberikan suatu fitur tambahan untuk member tercinta dari www.remisuper.com.

Terdapat tiga pilihan harga jackpot yang bisa anda beli yaitu :100,500,1000 dan 2000(khusus table VIP Keatas) rupiah.

Hadiah dari Multi jackpot system www.remisuper.com

  1. full house x 10 harga jackpot yang anda beli.
      (contoh:anda membeli 1000 maka:1000 X10 = 10.000)
  2. four of kind x 250 harga jackpot yang anda beli
      (contoh:anda membeli 1000 maka:1000 X250 = 250.000)
  3. Straight flush x 1200
      (contoh:anda membeli 1000 maka:1000 X1200 = 1.200.000)
  4. Royal flush x 10000 harga jackpot yang anda beli
      (contoh:anda membeli 1000 maka:1000 X10000 = 10.000.000)
  5. SUPER ROYAL FLUSH x 30000 harga jackpot yang anda beli
      (contoh:anda membeli 1000 maka:1000 X30000 = 30.000.000)

Kondisi kartu

  1. full house adalah kondisi kartu dimana kartu anda dan kartu tengah dengan total 7 kartu bisa mendapatkan nilai 5 kartu dengan kombinasi 1 tris(three of kind) dan 1 pair, contoh 3 kartu 10 dan 2 kartu 5
  2. Four of kind adalah kondisi kartu dimana kartu anda dan kartu tengah dengan total 7 kartu bisa mendapatkan nilai 5 kartu dengan kombinasi 4 kartu yang sama jumlah dan 1 kartu apapun juga contoh anda mendapatkan 4 buah kartu angka 3 dan 1 kartu apapun.
  3. Staright flush adalah kondisi kartu dimana kartu anda dan kartu tengah dengan total 7 kartu bisa mendapatkan nilai 5 kartu dengan kombinasi seri / staright dengan kembang yang sama contoh : urutan kartu dari angka 5, 6, 7, 8 , 9 10 dengan kembang yg sama misalnya as hati
  4. Royal flush adalah kondisi kartu dimana kartu anda dan kartu tengah dengan total 7 kartu bisa mendapatkan nilai 5 kartu dengan kombinasi seri / staright dengan kembang yang sama tetapi kartu tersebut haruslah dimulai dari 10. contoh 10, Queen, Jack, King dan aces dengan kembang yang sama
  5. Super Royal flush adalah kondisi kartu dimana Kedua kartu anda digabung dengan 3 kartu pertama meja haruslah royal flush. contoh kartu anda 10,Queen kembang sama dan 3 kartu pertama meja adalah Jack, King dan aces dengan kembang yang sama

Demikian adalah penjelasan dari Multi Jackpot www.remisuper.com terima kasih dan selamat bermain salam hoki dari kami

Texas Poker Jackpot Winner

TOP SUPER ROYAL FLUSH
No.TanggalNamaPriceWin
118/12 16:32REWA_99Super Royal flush15,000,000
218/12 11:40NRULES2502Super Royal flush15,000,000
318/12 10:24MANIK44Super Royal flush15,000,000
418/12 03:22YANSPEACESuper Royal flush30,000,000
517/12 21:42ZANDYMANSuper Royal flush6,000,000
TOP ROYAL FLUSH
No.TanggalNamaPriceWin
118/12 19:46BEKSBAKSRoyal flush2,000,000
218/12 19:17SOMIL99Royal flush10,000,000
318/12 18:52DWTMESI1234Royal flush1,000,000
418/12 18:44OKENK1987Royal flush5,000,000
518/12 18:35DWBTALAN18Royal flush10,000,000
TOP STRAIGHT FLUSH
No.TanggalNamaPriceWin
118/12 19:45UWIL98Straight Flush600,000
218/12 19:45W40NE99Straight Flush600,000
318/12 19:41COMBATT_11Straight Flush240,000
418/12 19:36T4D0013096Straight Flush120,000
518/12 19:36INIDEWA889Straight Flush120,000
LATEST JACKPOT
No.TanggalNamaPriceWin
118/12 19:46CWG0WGTJT5Full House1,000
218/12 19:46E8DOS3Y7QPFull House2,000
318/12 19:46QIDAM06Full House10,000
418/12 19:46STEMPELFull House20,000
518/12 19:46AADDAIUN30Full House5,000
618/12 19:46MANG_BLURRFull House10,000
718/12 19:46FIRZA22Full House2,000
818/12 19:46NAMNAM6Four Of A Kind50,000
918/12 19:46RISOL45Four Of A Kind50,000
1018/12 19:46EGGTEA777Full House2,000
1118/12 19:46GODEK93Full House10,000
1218/12 19:46COBACBIP12Full House5,000
1318/12 19:46KE_P_OE_1_Full House1,000
1418/12 19:46MUKAHOKI1Four Of A Kind50,000
1518/12 19:46JUVE856Full House500
1618/12 19:46SYALALA15Full House5,000
1718/12 19:46OLLLLLLLLLFull House2,000
1818/12 19:46DING_168Full House5,000
1918/12 19:46KULON009Full House10,000
2018/12 19:46AADRBHAA67Full House2,000
2118/12 19:46BEEE11Full House2,000
2218/12 19:46EQ6TIUAP6WFull House5,000
2318/12 19:46KOMANG1174Full House5,000
2418/12 19:46E8F1010CFull House1,000
2518/12 19:46BEKSBAKSRoyal flush2,000,000
2618/12 19:46PERKUAHH78Full House5,000
2718/12 19:46SRTLLIKO12Full House5,000
2818/12 19:46B14RKANFull House5,000
2918/12 19:46YO2K99Full House5,000
3018/12 19:46THE250Full House10,000
3118/12 19:46NUGE91Full House2,000
3218/12 19:46KARAK56Full House2,000
3318/12 19:46MAMA_9911Full House2,000
3418/12 19:46TIANORONALFull House2,000
3518/12 19:46SAIPAMFull House5,000
3618/12 19:46T4D0013249Full House2,000
3718/12 19:46RAMA407Full House1,000
3818/12 19:46MAKAN333Four Of A Kind50,000
3918/12 19:46ZZCSANJ3DYFull House2,000
4018/12 19:46GALON765Full House2,000
4118/12 19:46OJIAFull House5,000
4218/12 19:45G4N00LFull House2,000
4318/12 19:45BOGEL0509Full House2,000
4418/12 19:45SS121MLFull House10,000
4518/12 19:45AA84597AFull House5,000
4618/12 19:45GKKUOKUUK8Four Of A Kind125,000
4718/12 19:45M0RED0Full House10,000
4818/12 19:45MONTOR1Full House5,000
4918/12 19:45CETOHMASUKFull House1,000
5018/12 19:45AURANA57Full House1,000

Domino Multi Jackpot System

Ikutilah global jackpot yang tersedia di system kami, dengan system jackpot terbaru dan pertama di indonesia, anda dapat membeli jackpot dengan harga 100 rupiah saja dan menangkan hadiahnya hingga puluhan juta rupiah.

Jackpot bukanlah suatu keharusan untuk dibeli, namun kami memberikan suatu fitur tambahan untuk member tercinta dari www.remisuper.com.

Terdapat tiga pilihan harga jackpot yang bisa anda beli yaitu :100,500 dan 1000 rupiah.

Hadiah dari Multi jackpot system www.remisuper.com

  1. Murni Kecil x 50 harga jackpot yang anda beli.
      (contoh:anda membeli 1000 maka:1000 X 50 = 50.000)
  2. Murni Besar x 50 harga jackpot yang anda beli
      (contoh:anda membeli 1000 maka:1000 X 50 = 50.000)
  3. BALAK x 100 harga jackpot yang anda beli
      (contoh:anda membeli 1000 maka:1000 X 100 = 100.000)
  4. ENAM DEWA x 6666 harga jackpot yang anda beli
      (contoh:anda membeli 1000 maka:1000 X 6666 = 6.666.000)

Demikian adalah penjelasan dari Multi Jackpot www.remisuper.com terima kasih dan selamat bermain salam hoki dari kami

Domino Jackpot Winner

TOP ENAM DEWA
No.TanggalNamaPriceWin
118/12 19:35WAN7109murni enam666,600
218/12 18:20DONGBASmurni enam6,666,000
318/12 16:49JIOUIHNNYmurni enam666,600
418/12 15:57PEONGSmurni enam3,333,000
518/12 14:05DEWATA199murni enam6,666,000
TOP BALAK
No.TanggalNamaPriceWin
118/12 19:46RENANG00balak100,000
218/12 19:45QQDARDERQQbalak50,000
318/12 19:43MAREBA80balak50,000
418/12 19:42K1NG6696balak100,000
518/12 19:33BAKRI46balak100,000
LATEST JACKPOT
No.TanggalNamaPriceWin
118/12 19:46RENANG00balak100,000
218/12 19:46MAYDELLMAYlucky992,500
318/12 19:45QQDARDERQQbalak50,000
418/12 19:44PUTUTCLPmurni kecil50,000
518/12 19:44GOODBOY15murni kecil50,000
618/12 19:44HOHOCSmurni besar5,000
718/12 19:43IGU15murni besar50,000
818/12 19:43ZAKI2903murni besar50,000
918/12 19:43MAREBA80balak50,000
1018/12 19:43KIMLO77murni kecil50,000
1118/12 19:43CAKMIN7murni besar25,000
1218/12 19:42GENIT99murni kecil5,000
1318/12 19:42K1NG6696balak100,000
1418/12 19:42SALAMENAUmurni besar5,000
1518/12 19:41JOSKER77murni besar5,000
1618/12 19:41ANDREEW90lucky9925,000
1718/12 19:40BAKBRINKmurni besar50,000
1818/12 19:40GUGUPAL998murni besar25,000
1918/12 19:39MANDAY77murni besar25,000
2018/12 19:39TANGKUP9murni kecil50,000
2118/12 19:38DOMI2585murni besar25,000
2218/12 19:37INODEmurni besar25,000
2318/12 19:37HHB28murni besar5,000
2418/12 19:37B1L1NGmurni besar5,000
2518/12 19:37BEBY66murni kecil25,000
2618/12 19:37ANDIK4Dlucky9925,000
2718/12 19:36RICHAD01murni besar50,000
2818/12 19:35WAN7109murni enam666,600
2918/12 19:34MAMPUS31murni besar50,000
3018/12 19:34EBEETmurni kecil5,000
3118/12 19:33KACANGKAmurni kecil25,000
3218/12 19:33BAKRI46balak100,000
3318/12 19:33REJA03balak100,000
3418/12 19:33ELHADARmurni besar50,000
3518/12 19:31JERO697murni besar50,000
3618/12 19:30SKALISmurni besar50,000
3718/12 19:30REJA03murni kecil25,000
3818/12 19:30BALENO2002murni besar50,000
3918/12 19:30DADONG9balak100,000
4018/12 19:30A11NUN99murni besar25,000
4118/12 19:29ACIL66murni besar25,000
4218/12 19:29ACAY23balak50,000
4318/12 19:28TN35FDBSmurni besar5,000
4418/12 19:27HASTA666murni besar50,000
4518/12 19:27SAABU700lucky9910,000
4618/12 19:27IYAPOKER18murni besar5,000
4718/12 19:27VANIA1989balak100,000
4818/12 19:27SANJAI09balak50,000
4918/12 19:27BIJAKS4NAlucky9910,000
5018/12 19:26SIOHOALUbalak100,000

Ceme Multi Jackpot System

Jackpot dilihat dari gabungan kartu pemain dengan kartu bandar. Bandar harus membeli jackpot sebanyak jumlah player yang sedang duduk. Sebagai contoh bila terdapat 3 pemain duduk bermain, dan bandar memutuskan untuk membeli jackpot Rp 1.000, maka pada periode tersebut bandar akan membeli jackpot sebanyak 3xRp1.000 = Rp3.000.

Jackpot bukanlah suatu keharusan untuk dibeli, namun kami memberikan suatu fitur tambahan untuk member tercinta dari www.remisuper.com.

Terdapat tiga pilihan harga jackpot yang bisa anda beli yaitu :100,500 dan 1000 rupiah.

Hadiah dari Multi jackpot system www.remisuper.com

  1. Murni Kecil x 50 harga jackpot yang anda beli.
      (contoh:anda membeli 1000 maka:1000 X 50 = 50.000)
  2. Murni Besar x 50 harga jackpot yang anda beli
      (contoh:anda membeli 1000 maka:1000 X 50 = 50.000)
  3. BALAK x 200 harga jackpot yang anda beli
      (contoh:anda membeli 1000 maka:1000 X 200 = 200.000)
  4. ENAM DEWA x 6666 harga jackpot yang anda beli
      (contoh:anda membeli 1000 maka:1000 X 6666 = 6.666.000)

Demikian adalah penjelasan dari Multi Jackpot www.remisuper.com terima kasih dan selamat bermain salam hoki dari kami

Ceme Jackpot Winner

TOP ENAM DEWA
No.TanggalNamaPriceWin
118/12 19:38NOW6666murni enam6,666,000
218/12 19:35KEWKEW98murni enam6,666,000
318/12 19:21LB88805murni enam6,666,000
418/12 18:59KEKE_89murni enam3,333,000
518/12 18:53AAAAAPAA97murni enam3,333,000
TOP BALAK
No.TanggalNamaPriceWin
118/12 19:46D3PUXS4KCVbalak20,000
218/12 19:46BDX12balak200,000
318/12 19:46EDUDASbalak200,000
418/12 19:45PELLOR22balak200,000
518/12 19:45MERYZONbalak200,000
LATEST JACKPOT
No.TanggalNamaPriceWin
118/12 19:46ALFAT123murni besar50,000
218/12 19:46DO_YOK84murni besar5,000
318/12 19:46D3PUXS4KCVbalak20,000
418/12 19:46FAH997murni kecil50,000
518/12 19:46BDX12balak200,000
618/12 19:46FINGKYDWImurni kecil50,000
718/12 19:46XZIQIZ52KLmurni kecil25,000
818/12 19:46EDUDASbalak200,000
918/12 19:46KPDSLA2EITmurni besar5,000
1018/12 19:45PELLOR22balak200,000
1118/12 19:45MERYZONbalak200,000
1218/12 19:45RASTA666murni kecil5,000
1318/12 19:45FINGKYDWImurni kecil50,000
1418/12 19:45MOBIL365murni kecil50,000
1518/12 19:45SEVENZ7balak200,000
1618/12 19:45NAGA372balak200,000
1718/12 19:45KUMIKO41murni kecil50,000
1818/12 19:45R4NDY33murni besar25,000
1918/12 19:45URUK1996murni besar5,000
2018/12 19:45KUGGYmurni kecil5,000
2118/12 19:45EDOT619murni kecil50,000
2218/12 19:45CEMPUTbalak100,000
2318/12 19:45TRIYANTO11murni besar25,000
2418/12 19:45IBLIZ212murni kecil25,000
2518/12 19:44FSP11murni kecil50,000
2618/12 19:44CHAKI66murni kecil50,000
2718/12 19:44YASIR100balak20,000
2818/12 19:44PERTAMAX6murni kecil50,000
2918/12 19:44B646DC47murni kecil25,000
3018/12 19:44DOROTI123murni kecil5,000
3118/12 19:44JIRO12murni kecil50,000
3218/12 19:44BEKOCK666murni kecil5,000
3318/12 19:44PELLOR22balak200,000
3418/12 19:44WEITHINGmurni kecil50,000
3518/12 19:44NATASY51murni kecil50,000
3618/12 19:44SERUNTUL26balak200,000
3718/12 19:44VANILAICEbalak200,000
3818/12 19:44JACKSBROmurni kecil50,000
3918/12 19:44MIUKS09murni kecil50,000
4018/12 19:44DAWIJOLmurni besar50,000
4118/12 19:44BARLEY217murni besar5,000
4218/12 19:43JUKE877murni kecil50,000
4318/12 19:43PAHING169balak100,000
4418/12 19:43PIANAJEbalak200,000
4518/12 19:43KUGGYmurni kecil5,000
4618/12 19:43CIKALONG3murni kecil50,000
4718/12 19:43MYBARKEERmurni besar50,000
4818/12 19:43AJISSFFmurni besar50,000
4918/12 19:43EDUDASmurni kecil50,000
5018/12 19:43HANOK39murni besar50,000